Flag for Bosnia-Herzegovina Weather past 2 weeks in Sarajevo, Bosnia-Herzegovina

Now
52 °F

Light rain. Partly sunny.


Feels Like: 52 °F
Forecast: 38 / 42 °F
Wind: 2 mph from North

Location: Sarajevo / Butmir

Current Time: Mar 27, 2015 at 3:14:59 PM

Latest Report: Mar 27, 2015 at 3:00 PM


Visibility: N/A

Pressure: 29.65 "Hg

Humidity: 88%

Dew point: 48 °F

Location of SarajevoLocation

Historic Weather in Sarajevo — Graph

°F

Sarajevo temperature yesterday

Maximum temperature yesterday: 64 °F (at 1:00 PM)
Minimum temperature yesterday: 45 °F (at 11:00 PM)
Average temperature yesterday: 58 °F

Past Weeks' High & Low Weather Summary

 TemperatureHumidityPressure
High64 °F (Mar 26, 1:00 PM)100% (Mar 12, 7:30 PM)30.45 "Hg (Mar 12, 7:30 PM)
Low23 °F (Mar 20, 5:00 AM)16% (Mar 21, 4:00 PM)29.65 "Hg (Mar 27, 11:00 AM)
Average44 °F69%30.10 "Hg
* Reported Mar 12 2:00 PM — Mar 27 2:00 PM, Sarajevo, Weather by CustomWeather, © 2015

Note: Actual official high and low records may vary slightly from our data, if they occured in-between our weather recording intervals... More about our weather records

Advertising

Sarajevo weather history for previous 24 hours

 ConditionsComfort  
Time TempWeatherWind HumidityBarometerVisibility
2:00 PM
Fri, Mar 27
54 °FLight rain. Broken clouds.1 mph82%29.65 "HgN/A
1:30 PM57 °FLight rain. Broken clouds.6 mph67%29.65 "HgN/A
1:00 PM57 °FLight rain. Broken clouds.2 mph67%29.65 "HgN/A
12:30 PM57 °FBroken clouds.3 mph63%29.65 "HgN/A
12:00 PM57 °FBroken clouds.3 mph63%29.65 "HgN/A
11:30 AM57 °FPartly sunny.1 mph63%29.65 "HgN/A
11:00 AM55 °FScattered clouds.2 mph67%29.65 "HgN/A
10:30 AM55 °FPassing clouds.1 mph63%29.68 "HgN/A
10:00 AM52 °FPassing clouds.1 mph72%29.71 "HgN/A
9:30 AM50 °FPassing clouds.1 mph71%29.71 "HgN/A
9:00 AM46 °FPassing clouds.1 mph82%29.71 "HgN/A
8:30 AM45 °FPassing clouds.1 mph81%29.74 "HgN/A
8:00 AM43 °FPassing clouds.1 mph87%29.74 "HgN/A
7:30 AM41 °FSunny.1 mph93%29.74 "Hg10 mi
7:00 AM39 °FSunny.1 mph93%29.74 "Hg10 mi
6:30 AM36 °FSunny.1 mph100%29.71 "Hg10 mi
6:00 AM36 °FSunny.1 mph100%29.71 "Hg10 mi
5:30 AM37 °FClear.1 mph93%29.71 "Hg10 mi
5:00 AM37 °FClear.No wind93%29.71 "Hg10 mi
4:00 AM39 °FClear.No wind93%29.71 "Hg10 mi
3:00 AM37 °FClear.2 mph100%29.74 "Hg10 mi
2:00 AM39 °FClear.1 mph93%29.74 "Hg10 mi
1:00 AM39 °FClear.1 mph93%29.77 "Hg10 mi
12:00 AM43 °FClear.1 mph87%29.77 "Hg10 mi
11:00 PM
Thu, Mar 26
45 °FClear.2 mph87%29.77 "Hg10 mi
10:00 PM46 °FClear.1 mph76%29.77 "Hg10 mi
9:30 PM48 °FClear.1 mph71%29.77 "Hg10 mi
9:00 PM46 °FClear.3 mph76%29.77 "Hg10 mi
8:30 PM50 °FClear.2 mph71%29.77 "Hg10 mi
8:00 PM52 °FClear.1 mph67%29.77 "Hg10 mi
7:30 PM54 °FClear.1 mph63%29.77 "Hg10 mi
7:00 PM55 °FPassing clouds.5 mph59%29.77 "HgN/A
6:30 PM57 °FClear.2 mph59%29.77 "Hg10 mi
6:00 PM61 °FSunny.2 mph52%29.77 "Hg10 mi
5:30 PM63 °FSunny.2 mph49%29.77 "Hg10 mi
5:00 PM63 °FSunny.3 mph49%29.77 "Hg10 mi
4:30 PM64 °FPassing clouds.5 mph46%29.77 "HgN/A
4:00 PM64 °FPassing clouds.3 mph46%29.77 "HgN/A
3:30 PM64 °FPassing clouds.5 mph46%29.80 "HgN/A
3:00 PM64 °FScattered clouds.9 mph46%29.80 "HgN/A
Weather by CustomWeather, © 2015

See weather overviewHow to use our weather pages